User: anonymous   Login
Location: Vancouver
(49.2500°N, 123.1330°W)
Time: 19:31:03
(UTC-08:00)
Language:

Cosmos 1340 Rocket - Orbit

View from above orbital plane
View from above orbital plane
View from above satellite
View from above satellite

Ground track
Ground track

The orbit data is extracted from the following two-line orbital elements,

1 13068U 82013B   14331.49831271  .00002068  00000-0  14382-3 0  5622
2 13068 081.2042 206.1171 0023536 149.7344 210.5244 15.04872782783095
Epoch (UTC): 27 November 2014 11:57:34
Eccentricity: 0.0023536
inclination: 81.2042°
perigee height: 535 km
apogee height: 568 km
right ascension of ascending node: 206.1171°
argument of perigee: 149.7344°
revolutions per day: 15.04872782
mean anomaly at epoch: 210.5244°
orbit number at epoch: 78309

The dashed part of the orbit path shows where the satellite is in the earth's shadow,  

DLR